TimeEDT,TemperatureF,Dew PointF,Humidity,Sea Level PressureIn,VisibilityMPH,Wind Direction,Wind SpeedMPH,Gust SpeedMPH,PrecipitationIn,Events,Conditions,WindDirDegrees,DateUTC
12:54 AM,73.0,61.0,66,29.86,10.0,WSW,9.2,-,N/A,,Overcast,240,2013-08-03 04:54:00
1:54 AM,71.1,61.0,70,29.85,10.0,SSW,8.1,-,N/A,,Scattered Clouds,210,2013-08-03 05:54:00
2:54 AM,70.0,61.0,73,29.83,10.0,SW,6.9,-,N/A,,Scattered Clouds,230,2013-08-03 06:54:00
3:54 AM,69.1,61.0,75,29.82,10.0,SW,9.2,-,N/A,,Scattered Clouds,230,2013-08-03 07:54:00
4:54 AM,69.1,61.0,75,29.82,10.0,WSW,8.1,-,N/A,,Scattered Clouds,240,2013-08-03 08:54:00
5:54 AM,68.0,61.0,78,29.83,10.0,SW,10.4,-,N/A,,Mostly Cloudy,230,2013-08-03 09:54:00
6:54 AM,69.1,61.0,75,29.83,10.0,WSW,11.5,-,N/A,,Mostly Cloudy,240,2013-08-03 10:54:00
7:54 AM,71.1,60.1,68,29.82,10.0,WSW,11.5,-,N/A,,Mostly Cloudy,240,2013-08-03 11:54:00
8:54 AM,73.0,59.0,61,29.82,10.0,WSW,15.0,24.2,N/A,,Mostly Cloudy,250,2013-08-03 12:54:00
9:54 AM,73.0,57.9,59,29.82,10.0,West,15.0,23.0,N/A,,Mostly Cloudy,270,2013-08-03 13:54:00
10:54 AM,73.0,59.0,61,29.83,10.0,West,13.8,19.6,N/A,,Overcast,270,2013-08-03 14:54:00
11:54 AM,73.9,57.9,57,29.82,10.0,West,13.8,21.9,N/A,,Mostly Cloudy,280,2013-08-03 15:54:00
12:54 PM,77.0,60.1,56,29.82,10.0,West,12.7,-,N/A,,Mostly Cloudy,260,2013-08-03 16:54:00
1:54 PM,77.0,59.0,54,29.81,10.0,West,12.7,-,N/A,,Mostly Cloudy,260,2013-08-03 17:54:00
2:54 PM,77.0,59.0,54,29.81,10.0,WSW,12.7,21.9,N/A,,Mostly Cloudy,240,2013-08-03 18:54:00
3:54 PM,78.1,59.0,52,29.79,10.0,WSW,13.8,-,N/A,,Mostly Cloudy,250,2013-08-03 19:54:00
4:54 PM,80.1,59.0,48,29.78,10.0,WSW,13.8,20.7,N/A,,Scattered Clouds,240,2013-08-03 20:54:00
5:54 PM,79.0,57.9,48,29.78,10.0,SW,15.0,-,N/A,,Scattered Clouds,230,2013-08-03 21:54:00
6:54 PM,78.1,57.9,50,29.78,10.0,WSW,12.7,21.9,N/A,,Scattered Clouds,250,2013-08-03 22:54:00
7:54 PM,75.9,61.0,60,29.79,10.0,WSW,13.8,-,N/A,,Scattered Clouds,240,2013-08-03 23:54:00
8:54 PM,73.9,63.0,68,29.82,10.0,SW,15.0,-,N/A,,Scattered Clouds,230,2013-08-04 00:54:00
9:54 PM,73.0,62.1,68,29.83,10.0,WSW,10.4,-,N/A,,Scattered Clouds,250,2013-08-04 01:54:00
10:54 PM,72.0,61.0,68,29.83,10.0,West,9.2,-,N/A,,Scattered Clouds,260,2013-08-04 02:54:00
11:54 PM,71.1,59.0,66,29.83,10.0,WSW,9.2,-,N/A,,Scattered Clouds,250,2013-08-04 03:54:00